EW9515 Weather Reports


time (UTC)temp
C
wind
direction
speed
KPH
gust
KPH
rain 1hr
cm
rain 24hr
cm
rain mn
cm
humidity
%
barometer
mb
20260510000449 22 180 6.4 11.3 0.00 0.00 0.00 72 1024.2
20260509235429 22 225 11.3 16.1 0.00 0.00 0.00 72 1024.1
20260509234429 22 158 11.3 14.5 0.00 0.00 0.00 73 1024.2
20260509233428 22 180 9.7 17.7 0.00 0.00 0.00 74 1024.0
20260509232430 22 158 6.4 9.7 0.00 0.00 0.00 74 1023.8
20260509231434 22 203 8.0 14.5 0.00 0.00 0.00 75 1023.7
20260509230429 21 203 6.4 12.9 0.00 0.00 0.00 75 1023.8
20260509225450 21 203 6.4 12.9 0.00 0.00 0.00 75 1023.7
20260509224428 21 225 11.3 20.9 0.00 0.00 0.00 76 1023.7
20260509223429 21 203 9.7 14.5 0.00 0.00 0.00 76 1023.6
20260509222430 20 180 6.4 8.0 0.00 0.00 0.00 77 1023.6
20260509221429 20 180 8.0 12.9 0.00 0.00 0.00 78 1023.5
20260509220449 20 203 4.8 8.0 0.00 0.00 0.00 78 1023.5
20260509215429 19 225 4.8 8.0 0.00 0.00 0.00 79 1023.5
20260509214428 19 203 4.8 6.4 0.00 0.00 0.00 80 1023.3
20260509213429 18 203 4.8 8.0 0.00 0.00 0.00 81 1023.2
20260509212428 18 203 3.2 4.8 0.00 0.00 0.00 82 1023.1
20260509211451 18 225 4.8 6.4 0.00 0.00 0.00 83 1023.0
20260509210509 17 180 3.2 4.8 0.00 0.00 0.00 84 1022.8
20260509205429 17 180 1.6 1.6 0.00 0.00 0.00 84 1022.7
20260509204428 17 180 1.6 3.2 0.00 0.00 0.00 84 1022.6
20260509203429 17 0.0 1.6 0.00 0.00 0.00 83 1022.6
20260509202453 17 0.0 1.6 0.00 0.00 0.00 83 1022.4
20260509201449 17 180 1.6 3.2 0.00 0.00 0.00 83 1022.3
20260509200428 17 180 1.6 3.2 0.00 0.00 0.00 83 1022.2
20260509195428 17 180 1.6 3.2 0.00 0.00 0.00 83 1022.2
20260509194429 17 203 3.2 4.8 0.00 0.00 0.00 83 1022.1
20260509193429 17 203 3.2 4.8 0.00 0.00 0.00 82 1021.8
20260509192429 17 180 1.6 4.8 0.00 0.00 0.00 82 1021.9
20260509191428 17 203 4.8 6.4 0.00 0.00 0.00 81 1021.9
20260509190429 17 203 4.8 8.0 0.00 0.00 0.00 83 1021.9
20260509185429 16 158 4.8 6.4 0.00 0.00 0.00 86 1021.7
20260509184430 15 90 3.2 4.8 0.00 0.00 0.00 88 1021.7
20260509183428 14 90 1.6 3.2 0.00 0.00 0.00 88 1021.7
20260509182429 13 0.0 0.0 0.00 0.00 0.00 88 1021.6
20260509181428 13 0.0 0.0 0.00 0.00 0.00 88 1021.6
20260509180433 13 0.0 0.0 0.00 0.00 0.00 87 1021.5
20260509175449 13 0.0 1.6 0.00 0.00 0.00 87 1021.4
20260509174428 13 0.0 0.0 0.00 0.00 0.00 87 1021.3
20260509173429 14 0.0 0.0 0.00 0.00 0.00 87 1021.2
20260509172434 14 0.0 0.0 0.00 0.00 0.00 86 1021.1
20260509171434 14 0.0 0.0 0.00 0.00 0.00 86 1021.2
20260509170428 14 0.0 1.6 0.00 0.00 0.00 86 1021.1
20260509165447 14 0.0 0.0 0.00 0.00 0.00 86 1021.2
20260509164433 14 0.0 0.0 0.00 0.00 0.00 86 1021.1
20260509163449 15 0.0 0.0 0.00 0.00 0.00 86 1021.2
20260509162428 15 0.0 0.0 0.00 0.00 0.00 86 1021.3
20260509161429 14 0.0 0.0 0.00 0.00 0.00 87 1021.3
20260509160448 14 0.0 1.6 0.00 0.00 0.00 88 1021.3
20260509155428 13 0.0 1.6 0.00 0.00 0.00 89 1021.4
20260509154428 13 0.0 1.6 0.00 0.00 0.00 89 1021.5
20260509153428 13 0.0 0.0 0.00 0.00 0.00 89 1021.6
20260509152429 13 0.0 0.0 0.00 0.00 0.00 88 1021.6
20260509151448 13 0.0 0.0 0.00 0.00 0.00 88 1021.6
20260509150428 13 0.0 0.0 0.00 0.00 0.00 88 1021.7
20260509145428 13 0.0 1.6 0.00 0.00 0.00 88 1021.7
20260509144453 13 0.0 1.6 0.00 0.00 0.00 88 1021.8
20260509143430 13 0.0 0.0 0.00 0.00 0.00 87 1021.8
20260509142429 13 0.0 0.0 0.00 0.00 0.00 87 1021.8
20260509141430 13 0.0 0.0 0.00 0.00 0.00 87 1021.8
20260509140430 13 0.0 0.0 0.00 0.00 0.00 86 1021.9
20260509135419 13 0.0 0.0 0.00 0.00 0.00 86 1022.0
20260509134429 13 0.0 1.6 0.00 0.00 0.00 86 1022.0
20260509133419 13 0.0 0.0 0.00 0.00 0.00 85 1022.0
20260509132430 13 0.0 1.6 0.00 0.00 0.00 84 1022.0
20260509131420 14 0.0 1.6 0.00 0.00 0.00 84 1022.0
20260509130429 14 0.0 0.0 0.00 0.00 0.00 83 1022.0
20260509125420 14 90 1.6 3.2 0.00 0.00 0.00 82 1022.0
20260509124430 15 90 1.6 1.6 0.00 0.00 0.00 81 1021.9
20260509123421 15 0.0 0.0 0.00 0.00 0.00 80 1022.0
20260509122454 15 0.0 0.0 0.00 0.00 0.00 80 1021.9
20260509121419 15 90 1.6 3.2 0.00 0.00 0.00 80 1021.8
20260509120428 15 90 1.6 3.2 0.00 0.00 0.00 81 1021.7
20260509115421 15 90 1.6 3.2 0.00 0.00 0.00 81 1021.7
20260509114429 15 90 1.6 3.2 0.00 0.00 0.00 81 1021.8
20260509113426 15 90 1.6 3.2 0.00 0.00 0.00 83 1021.9
20260509112437 15 0.0 1.6 0.00 0.00 0.00 83 1021.8
20260509111421 15 0.0 0.0 0.00 0.00 0.00 83 1022.0
20260509110431 15 0.0 0.0 0.00 0.00 0.00 82 1022.0
20260509105428 15 90 1.6 3.2 0.00 0.00 0.00 82 1022.0
20260509104421 16 0.0 1.6 0.00 0.00 0.00 82 1022.2
20260509103423 16 0.0 0.0 0.00 0.00 0.00 81 1022.1
20260509102428 16 0.0 0.0 0.00 0.00 0.00 80 1022.1
20260509101600 16 0.0 0.0 0.00 0.00 0.00 79 1022.0
20260509100429 16 0.0 0.0 0.00 0.00 0.00 79 1021.8
20260509095428 17 0.0 0.0 0.00 0.00 0.00 78 1021.7
20260509094439 17 0.0 0.0 0.00 0.00 0.00 77 1021.6
20260509093429 17 0.0 0.0 0.00 0.00 0.00 77 1021.6
20260509092433 17 0.0 0.0 0.00 0.00 0.00 76 1021.5
20260509091419 18 0.0 0.0 0.00 0.00 0.00 76 1021.5
20260509090421 18 0.0 1.6 0.00 0.00 0.00 75 1021.2
20260509085442 18 0.0 1.6 0.00 0.00 0.00 75 1021.2
20260509084449 18 90 1.6 1.6 0.00 0.00 0.00 75 1021.1
20260509083420 18 90 1.6 1.6 0.00 0.00 0.00 74 1021.0
20260509082419 19 89 3.2 0.0 0.00 0.00 0.00 72 1020.8
20260509081438 19 0.0 1.6 0.00 0.00 0.00 72 1020.7
20260509080417 19 90 1.6 1.6 0.00 0.00 0.00 72 1020.7
20260509075428 19 90 1.6 1.6 0.00 0.00 0.00 72 1020.6
20260509074448 20 90 1.6 1.6 0.00 0.00 0.00 73 1020.4
20260509073426 20 0.0 1.6 0.00 0.00 0.00 71 1020.4
20260509072428 21 0.0 0.0 0.00 0.00 0.00 70 1020.2
20260509071428 21 0.0 0.0 0.00 0.00 0.00 68 1020.1
20260509070429 21 0.0 1.6 0.00 0.00 0.00 66 1019.9
20260509065428 22 90 1.6 3.2 0.00 0.00 0.00 66 1019.8
20260509064417 22 90 1.6 3.2 0.00 0.00 0.00 65 1019.7
20260509063419 22 90 3.2 4.8 0.00 0.00 0.00 64 1019.6
20260509062440 22 90 1.6 4.8 0.00 0.00 0.00 63 1019.5
20260509061418 22 68 4.8 6.4 0.00 0.00 0.00 61 1019.4
20260509060418 23 113 1.6 4.8 0.00 0.00 0.00 61 1019.4
20260509055418 23 90 4.8 6.4 0.00 0.00 0.00 61 1019.3
20260509054421 23 113 3.2 4.8 0.00 0.00 0.00 60 1019.4
20260509053419 23 158 1.6 3.2 0.00 0.00 0.00 56 1019.3
20260509052518 23 158 3.2 4.8 0.00 0.00 0.00 56 1019.3
20260509051418 23 113 1.6 3.2 0.00 0.00 0.00 59 1019.2
20260509050424 23 0.0 1.6 0.00 0.00 0.00 58 1019.2
20260509045418 23 158 1.6 3.2 0.00 0.00 0.00 57 1019.2
20260509044420 23 180 4.8 9.7 0.00 0.00 0.00 55 1019.2
20260509043419 23 68 6.4 12.9 0.00 0.00 0.00 56 1019.2
20260509042423 23 90 3.2 4.8 0.00 0.00 0.00 54 1019.2
20260509041418 24 113 1.6 4.8 0.00 0.00 0.00 53 1019.2
20260509040419 23 158 1.6 3.2 0.00 0.00 0.00 53 1019.2
20260509035418 24 135 3.2 4.8 0.00 0.00 0.00 53 1019.2
20260509034419 24 135 3.2 6.4 0.00 0.00 0.00 53 1019.2
20260509033418 23 90 4.8 6.4 0.00 0.00 0.00 54 1019.3
20260509032419 24 135 3.2 4.8 0.00 0.00 0.00 54 1019.3
20260509031423 23 225 6.4 9.7 0.00 0.00 0.00 54 1019.4
20260509030439 23 90 6.4 11.3 0.00 0.00 0.00 54 1019.4
20260509025419 23 90 3.2 6.4 0.00 0.00 0.00 54 1019.5
20260509024419 23 135 4.8 8.0 0.00 0.00 0.00 53 1019.6
20260509023443 23 135 1.6 4.8 0.00 0.00 0.00 54 1019.8
20260509022420 24 113 6.4 11.3 0.00 0.00 0.00 52 1019.9
20260509021418 23 113 3.2 4.8 0.00 0.00 0.00 53 1020.0
20260509020424 23 113 4.8 8.0 0.00 0.00 0.00 53 1020.1
20260509015438 23 158 8.0 12.9 0.00 0.00 0.00 54 1020.3
20260509014419 23 135 4.8 9.7 0.00 0.00 0.00 55 1020.4
20260509013417 23 158 4.8 6.4 0.00 0.00 0.00 55 1020.5
20260509012439 23 158 8.0 12.9 0.00 0.00 0.00 55 1020.6
20260509011423 23 113 8.0 14.5 0.00 0.00 0.00 56 1020.7
20260509010418 23 113 8.0 14.5 0.00 0.00 0.00 57 1020.7
20260509005418 22 90 3.2 9.7 0.00 0.00 0.00 57 1020.8
20260509004423 22 203 6.4 9.7 0.00 0.00 0.00 57 1020.8
20260509003417 22 113 4.8 12.9 0.00 0.00 0.00 56 1021.1
20260509002438 22 203 8.0 11.3 0.00 0.00 0.00 56 1021.1
20260509001423 22 180 6.4 12.9 0.00 0.00 0.00 56 1021.0